East Quogue, NY

3:30 PM EST on December 10, 2016 (GMT -0500)
The Gabreski

Weather History for KFOK - March, 2013

Change the Weather History Date:

Friday, March 1, 2013

  Actual Average Record
Temperature  
Mean Temperature 40 °F -  
Max Temperature 46 °F 40 °F 57 °F (2004)
Min Temperature 34 °F 24 °F 0 °F (2015)
Degree Days  
Heating Degree Days 25    
Moisture  
Dew Point 31 °F    
Average Humidity 72    
Maximum Humidity 92    
Minimum Humidity 44    
Precipitation  
Precipitation 0.03 in - - ()
Sea Level Pressure  
Sea Level Pressure 29.65 in    
Wind  
Wind Speed 9 mph (NW)    
Max Wind Speed 15 mph    
Max Gust Speed 21 mph    
Visibility 10 miles    
Events Rain    
Averages and records for this station are not official NWS values.
T = Trace of Precipitation, MM = Missing Value Source: NWS Daily Summary

Daily Weather History Graph

Daily Weather History Graph

Search for Another Location

Airport or City:

Trip Planner

Search our weather history database for the weather conditions in past years. The results will help you decide how hot, cold, wet, or windy it might be!

Date:

Astronomy

Mar. 01, 2013 Rise Set
Actual Time 6:24 AM EST 5:41 PM EST
Civil Twilight 5:56 AM EST 6:09 PM EST
Nautical Twilight 5:24 AM EST 6:41 PM EST
Astronomical Twilight 4:53 AM EST 7:13 PM EST
Moon 10:14 PM EST (3/1) 8:07 AM EST (3/1)
Length of Visible Light 12h 12m
Length of Day
11h 17m
Waning Gibbous, 83% of the Moon is Illuminated
Mar 1
Waning Gibbous
Mar 4
Last Quarter
Mar 11
New
Mar 19
First Quarter
Mar 27
Full

Hourly Weather History & Observations

Time (EST) Temp. Windchill Dew Point Humidity Pressure Visibility Wind Dir Wind Speed Gust Speed Precip Events Conditions
12:43 AM 39.2 °F 33.6 °F 35.6 °F 87% 29.58 in 10.0 mi WNW 8.1 mph - 0.01 in Rain Light Rain
12:53 AM 39.0 °F 34.0 °F 35.1 °F 86% 29.58 in 10.0 mi WNW 6.9 mph - 0.02 in Rain Light Rain
1:07 AM 39.2 °F 33.0 °F 35.6 °F 87% 29.58 in 9.0 mi NW 9.2 mph - 0.00 in Rain Light Rain
1:28 AM 39.2 °F 33.6 °F 35.6 °F 87% 29.58 in 10.0 mi NW 8.1 mph - 0.01 in Rain Light Rain
1:53 AM 39.0 °F 33.4 °F 35.1 °F 86% 29.58 in 10.0 mi NW 8.1 mph - 0.01 in Rain Light Rain
2:53 AM 36.0 °F 30.3 °F 33.1 °F 89% 29.58 in 10.0 mi NW 6.9 mph - 0.00 in   Partly Cloudy
3:53 AM 34.0 °F 31.0 °F 32.0 °F 92% 29.60 in 10.0 mi NW 3.5 mph - N/A   Mostly Cloudy
4:53 AM 35.1 °F 29.3 °F 32.0 °F 89% 29.61 in 10.0 mi NW 6.9 mph - N/A   Mostly Cloudy
5:53 AM 35.1 °F 29.3 °F 32.0 °F 89% 29.62 in 10.0 mi NW 6.9 mph - N/A   Overcast
6:53 AM 34.0 °F 28.0 °F 30.9 °F 89% 29.64 in 10.0 mi NW 6.9 mph - N/A   Clear
7:53 AM 37.0 °F 30.4 °F 33.1 °F 86% 29.65 in 10.0 mi NW 9.2 mph - N/A   Overcast
9:53 AM 41.0 °F 34.7 °F 33.1 °F 73% 29.67 in 10.0 mi NNW 10.4 mph - N/A   Overcast
10:53 AM 43.0 °F 35.7 °F 32.0 °F 65% 29.68 in 10.0 mi NW 15.0 mph - N/A   Overcast
11:53 AM 43.0 °F 36.0 °F 30.0 °F 60% 29.68 in 10.0 mi NW 13.8 mph - N/A   Overcast
12:53 PM 45.0 °F 38.9 °F 28.9 °F 53% 29.67 in 10.0 mi WNW 12.7 mph - N/A   Overcast
2:53 PM 46.0 °F 40.6 °F 25.0 °F 44% 29.66 in 10.0 mi WNW 11.5 mph 20.7 mph N/A   Overcast
3:53 PM 45.0 °F 41.2 °F 26.1 °F 48% 29.66 in 10.0 mi NW 6.9 mph - N/A   Overcast
4:53 PM 43.0 °F 36.0 °F 26.1 °F 51% 29.68 in 10.0 mi NW 13.8 mph - N/A   Overcast
5:53 PM 42.1 °F 36.6 °F 26.1 °F 53% 29.70 in 10.0 mi NW 9.2 mph - N/A   Overcast
6:53 PM 41.0 °F 35.2 °F 27.0 °F 57% 29.72 in 10.0 mi NW 9.2 mph - N/A   Overcast
7:53 PM 39.9 °F 33.4 °F 27.0 °F 60% 29.73 in 10.0 mi NW 10.4 mph - N/A   Overcast
9:53 PM 39.0 °F 33.4 °F 28.0 °F 65% 29.74 in 10.0 mi NW 8.1 mph - N/A   Overcast
10:53 PM 39.0 °F 33.4 °F 28.0 °F 65% 29.75 in 10.0 mi NW 8.1 mph - N/A   Overcast
11:53 PM 37.9 °F 30.5 °F 28.0 °F 68% 29.75 in 10.0 mi NW 11.5 mph - N/A   Overcast